Starlink 4335

operational
NORAD ID: 53215 Int'l Des: 2022-084 Owner: SPXS Country: US Constellation: starlink
LEOCIRCULARRETROGRADESSO

Über Starlink 4335

Beschreibung wird geladen...

Live-Position

3D-Globus wird geladen...

Nächste Überflüge

Höhenverlauf

Altitude vs Time

uPlot chart will show altitude changes over time

Zweizeiliger Elementsatz

1 53215U 22084AC 26062.18006955 .00000816 00000-0 60725-4 0 9991
2 53215 97.6032 124.8089 0000527 140.5921 219.5344 15.05649591198925
Epoch: 3. März 2026 • Age: 30 hours

Aktueller Status

Höhe 555.2 km
Geschwindigkeit 7.59 km/s
Subsatellitenpunkt 39.55°N, 132.71°W
Startdatum 22. Juli 2022
Alter 3.6 years
Typ internet

Technische Details

Klassifizierung Payload
Masse 297.00 kg
Trockenmasse 275.00 kg
Gesamtmasse 297.00 kg
Länge 0.20 m
Durchmesser 2.80 m
Spannweite 9.00 m
Form Box + pan
Hersteller SPXS
Bus-Typ Starlink
Phasenstatus In Orbit
Besitzer/Staat SPXS/US

Große Konstellationen

Loading constellations...